Hourly Data Report for September 13, 2017

All times are specified in Local Standard Time (LST). Add 1 hour to adjust for Daylight Saving Time where and when it is observed.

POND INLET A
NUNAVUT

72°41'22.000" N
77°58'08.000" W
61.60 m
2403206
71095
YIO

Download Data

Hourly Data (September 2017)
Hourly Data Report for September 13, 2017
Temp Definition
°C
Dew Point Temp Definition
°C
Rel Hum Definition
%
Wind Dir Definition
10's deg

Wind Spd Definition
km/h
Visibility Definition
km
Stn Press Definition
kPa
Hmdx Definition


Wind Chill Definition


Weather Definition


TIME
00:00 Legend Double Dagger -3.4 -6.3 81 23 5 16.1 100.84   -5 LegendNANA
01:00 Legend Double Dagger -2.2 -5.4 79 4 5 16.1 100.83   -4 LegendNANA
02:00 Legend Double Dagger -4.1 -6.9 81 LegendMM 4 16.1 100.86   -6 LegendNANA
03:00 Legend Double Dagger -3.8 -6.9 79 LegendMM 13 16.1 100.88   -9 LegendNANA
04:00 Legend Double Dagger -4.3 -6.8 83 2 5 16.1 100.92   -6 LegendNANA
05:00 Legend Double Dagger -4.6 -7.4 81 18 11 16.1 100.95   -9 LegendNANA
06:00 Legend Double Dagger -3.0 -4.9 87 36 11 16.1 100.97   -7 LegendNANA
07:00 Legend Double Dagger -2.5 -6.0 77 15 17 16.1 100.98   -8 LegendNANA
08:00 Legend Double Dagger -1.4 -5.1 76 15 8 16.1 101.01   -4 LegendNANA
09:00 Legend Double Dagger 1.1 -3.9 69 29 5 16.1 101.01     LegendNANA
10:00 Legend Double Dagger 3.2 -3.9 60 24 5 16.1 100.99     LegendNANA
11:00 Legend Double Dagger 2.7 -3.5 64 28 5 16.1 100.98     LegendNANA
12:00 Legend Double Dagger 2.8 -3.9 61 2 8 16.1 100.97     LegendNANA
13:00 Legend Double Dagger 3.4 -4.8 55 3 8 16.1 100.98     LegendNANA
14:00 Legend Double Dagger 2.6 -4.6 59 5 8 16.1 100.99     LegendNANA
15:00 Legend Double Dagger 1.9 -4.3 63 5 9 16.1 101.01     LegendNANA
16:00 Legend Double Dagger 2.2 -4.8 60 5 8 16.1 101.05     LegendNANA
17:00 Legend Double Dagger 1.7 -4.0 66 4 9 16.1 101.07     LegendNANA
18:00 Legend Double Dagger 0.5 -4.4 70 5 5 16.1 101.08     LegendNANA
19:00 Legend Double Dagger -1.5 -5.2 76 6 4 16.1 101.09   -3 LegendNANA
20:00 Legend Double Dagger -4.1 -7.7 76 16 9 16.1 101.10   -8 LegendNANA
21:00 Legend Double Dagger -4.8 -7.9 79 16 8 16.1 101.10   -8 LegendNANA
22:00 Legend Double Dagger -4.8 -7.3 83 15 9 16.1 101.08   -9 LegendNANA
23:00 Legend Double Dagger -5.2 -8.0 81 16 5 16.1 101.08   -7 LegendNANA

Notes on Data Quality.

Legend

  • E = Estimated
  • M = Missing
  • NA = Not Available
  • ‡ = Partner data that is not subject to review by the National Climate Archives
Date modified: